TimeCDT,TemperatureF,Dew PointF,Humidity,Sea Level PressureIn,VisibilityMPH,Wind Direction,Wind SpeedMPH,Gust SpeedMPH,PrecipitationIn,Events,Conditions,WindDirDegrees,DateUTC
12:53 AM,81.0,51.1,35,29.86,10.0,SSE,9.2,-,N/A,,Clear,160,2013-07-13 05:53:00
1:53 AM,78.1,51.1,39,29.87,10.0,SE,6.9,-,N/A,,Clear,140,2013-07-13 06:53:00
2:53 AM,77.0,50.0,39,29.87,10.0,SSE,9.2,-,N/A,,Clear,160,2013-07-13 07:53:00
3:53 AM,78.1,48.9,36,29.87,10.0,South,9.2,-,N/A,,Clear,180,2013-07-13 08:53:00
4:53 AM,78.1,48.9,36,29.88,10.0,SSW,10.4,-,N/A,,Clear,210,2013-07-13 09:53:00
5:53 AM,77.0,51.1,40,29.89,10.0,SW,11.5,-,N/A,,Clear,220,2013-07-13 10:53:00
6:53 AM,75.0,52.0,44,29.91,10.0,SW,8.1,-,N/A,,Partly Cloudy,230,2013-07-13 11:53:00
7:53 AM,75.9,53.1,45,29.92,10.0,WSW,4.6,-,N/A,,Partly Cloudy,240,2013-07-13 12:53:00
8:53 AM,82.0,53.1,37,29.94,10.0,SW,10.4,-,N/A,,Partly Cloudy,230,2013-07-13 13:53:00
9:53 AM,86.0,53.1,32,29.94,10.0,SSW,13.8,-,N/A,,Clear,210,2013-07-13 14:53:00
10:53 AM,89.1,52.0,28,29.93,10.0,SW,11.5,-,N/A,,Clear,220,2013-07-13 15:53:00
11:53 AM,91.9,52.0,26,29.93,10.0,South,9.2,-,N/A,,Clear,190,2013-07-13 16:53:00
12:53 PM,98.6,51.1,20,29.91,10.0,South,10.4,19.6,N/A,,Partly Cloudy,190,2013-07-13 17:53:00
1:53 PM,96.1,51.1,22,29.89,-9999.0,SSE,13.8,19.6,N/A,,Partly Cloudy,160,2013-07-13 18:53:00
2:53 PM,96.1,48.9,20,29.87,10.0,South,16.1,20.7,N/A,,Partly Cloudy,180,2013-07-13 19:53:00
3:53 PM,98.1,48.9,19,29.85,10.0,South,13.8,18.4,N/A,,Partly Cloudy,170,2013-07-13 20:53:00
4:53 PM,98.1,46.0,17,29.84,10.0,South,6.9,20.7,N/A,,Clear,190,2013-07-13 21:53:00
5:53 PM,96.8,42.8,16,29.83,10.0,SSE,13.8,18.4,,,Partly Cloudy,160,2013-07-13 22:53:00
6:53 PM,96.1,41.0,15,29.81,10.0,South,8.1,-,N/A,,Partly Cloudy,180,2013-07-13 23:53:00
7:53 PM,95.0,43.0,17,29.81,10.0,South,8.1,-,N/A,,Partly Cloudy,180,2013-07-14 00:53:00
8:53 PM,91.9,43.0,18,29.81,10.0,SSE,11.5,-,N/A,,Scattered Clouds,150,2013-07-14 01:53:00
9:53 PM,86.0,44.6,23,29.82,10.0,SSE,8.1,-,,,Scattered Clouds,160,2013-07-14 02:53:00
10:02 PM,86.0,44.6,23,29.82,10.0,SSE,8.1,-,,,Scattered Clouds,160,2013-07-14 03:02:00
10:53 PM,84.0,44.1,25,29.84,10.0,SSE,9.2,-,N/A,,Clear,160,2013-07-14 03:53:00
11:53 PM,81.0,43.0,26,29.86,10.0,South,5.8,-,N/A,,Clear,190,2013-07-14 04:53:00